Reflectivity
-20 -20 -20 -20 -20 -20 -14 13 10 -20 -20 16 13 4 -20 -20 -20 -20 -20 -20 -20 -20 -20 -20 -20 -20 -20 -20 -20 -20 -20 -20 -20 -20 -20 -20 -20 -20 -20 -19 -20 -20 -20 -20
-15 -13 -15 -20 -20 -20 -1 19 8 -18 7 16 13 1 -14 -20 -8 -20 -20 -20 -20 -20 -20 -20 -20 -20 -20 -20 -20 -20 -20 -20 -20 -20 -17 -20 -20 -20 -20 -20 -20 -20 8 -20
-20 -20 -20 -20 -20 -20 6 16 11 17 22 12 12 11 8 4 -9 -20 -5 -20 -9 -13 -20 -20 -15 -20 -20 -20 -20 -20 -20 -20 -20 -20 -12 14 4 -20 -20 -20 -20 -20 -20 -20
-20 -15 -20 -20 -20 -20 8 13 9 16 17 7 2 13 17 11 9 2 -20 5 -20 8 12 -20 -20 -20 -20 -20 -20 -20 -3 -16 -20 -20 -20 -20 -20 -20 -20 -20 -20 -20 -20 -20
-20 -20 -20 -19 -20 9 13 15 16 16 29 8 13 7 26 3 7 17 12 25 -7 29 18 -4 4 -18 -20 -20 -20 -20 -20 -20 -14 -20 -20 -20 -20 -20 -20 -20 -20 -20 -20 -20
-20 -20 -20 -20 4 18 13 4 7 30 4 17 21 6 6 25 19 24 26 8 13 35 2 17 10 -19 -20 -20 -20 -20 -8 -9 -13 -14 -20 10 -19 -20 -20 -20 -20 -20 -20 -20
-6 -20 -20 -20 -20 5 16 0 15 15 -5 -16 0 15 21 8 18 16 -14 27 19 0 -20 -1 9 -20 -20 -20 -20 -20 -4 16 -2 15 17 17 -20 -20 -20 -20 -20 -20 -20 -20
-5 7 8 -20 -20 -20 20 20 17 19 -1 -5 -20 3 6 8 17 21 -15 5 25 19 14 29 27 -19 -20 -20 -20 -20 -20 19 19 20 4 -20 -20 -20 -20 -20 -20 -20 -20 -20
-5 -20 -20 7 -2 -20 -0 18 20 19 15 -20 -19 5 2 5 8 -9 -1 -15 -3 25 31 28 7 -17 8 11 5 -20 22 -11 17 22 21 12 -20 -20 -20 -20 -18 -20 -18 28
0 1 -3 15 -20 -20 -1 16 22 21 14 -20 6 8 15 22 22 -4 -0 10 22 5 25 19 11 7 -4 3 11 10 19 22 17 18 16 -11 -20 -20 -20 -20 -20 -20 -20 9
-11 -5 2 -20 -13 -20 0 -15 8 23 19 7 5 11 14 10 16 12 10 18 10 17 23 17 9 5 13 9 15 -20 -11 -4 17 13 14 7 -20 -20 -20 9 -20 -20 -20 -20
-20 -12 -20 -20 -20 -15 20 19 -18 6 21 12 11 -17 -20 -20 1 6 6 10 -2 42 28 17 20 17 14 13 14 9 -7 -16 13 17 -17 -20 -20 -20 -20 -20 -20 -20 -7 -20
-17 -20 -20 -15 5 -19 17 21 15 19 12 -4 -20 -20 -20 -20 -20 -20 23 3 12 42 34 23 21 18 13 15 -1 -14 -20 -20 9 13 -20 -20 -20 -20 -20 -19 4 7 13 21
-20 -20 -20 -20 -16 0 6 22 19 21 19 21 -20 -18 -11 -20 -20 -20 -19 10 6 16 34 23 21 19 -16 13 19 17 3 -0 -20 -3 -20 -8 -10 9 -20 -20 -20 19 -12 29
-20 -20 -20 -20 3 16 24 24 20 21 21 17 10 -18 -20 -20 -20 -20 -6 15 10 4 32 22 10 15 18 2 8 4 -20 -20 -20 -20 -13 16 -17 -20 -20 -20 -20 10 -4 -20
9 -20 -20 -20 22 21 30 27 15 17 22 22 7 7 -20 -20 -8 14 6 8 23 31 30 29 19 -20 17 1 4 -20 -20 -20 -20 -20 -20 -20 -20 -20 -20 -20 -20 -20 -20 -20
7 -20 -20 18 12 13 17 3 -7 -20 -11 22 16 5 -20 13 1 17 27 35 38 29 21 -5 1 13 -20 -9 -6 -20 -20 -20 -20 -20 -20 -20 -20 -20 -20 -20 -20 -20 -20 -20
-13 -20 -16 23 22 27 21 21 15 19 0 15 13 -9 -20 6 5 33 37 34 19 14 18 -8 -20 6 5 -3 -20 -20 -20 -20 -20 -20 -20 -20 -20 -20 -20 -20 -20 -20 -20 -20
-20 -14 18 27 28 20 -15 7 29 34 17 21 -16 -8 16 -8 17 27 27 -5 10 6 5 5 11 6 8 -20 -20 -20 -20 -20 -20 -20 -20 -20 -20 -20 -20 -20 -20 -20 -20 -20
8 25 32 -19 3 4 -19 20 14 22 26 9 16 6 19 -5 6 3 -19 -0 -20 -2 -3 2 11 -19 -20 -20 -20 -20 -20 -20 -20 -20 -20 -20 -20 -20 -20 -20 -20 -20 -20 -20
21 -20 -2 21 15 13 -6 17 7 -4 11 9 -12 5 21 -11 12 8 -5 -6 -1 0 10 8 5 -20 -20 -20 -20 -20 -20 -20 -20 -20 -20 -20 -20 -20 -20 -20 -20 -20 -20 -20
11 -12 7 27 23 8 8 18 12 11 -2 -0 3 -4 -9 9 1 -2 -11 -10 -16 -20 15 17 -16 -20 -20 -10 -2 11 -15 -1 15 -20 -20 -20 -20 -20 -20 -20 -20 -20 -20 -20
-20 -20 30 24 15 18 20 6 5 5 -3 0 -3 3 12 6 1 -10 -18 -20 -6 2 14 -16 -20 -20 -20 11 40 17 -9 -18 -20 -20 -20 -20 -20 -20 -20 -6 -20 -20 -15 22
7 4 5 8 19 -17 -20 -18 -20 -20 -20 -15 4 -20 -3 -19 -16 -8 -19 3 5 9 14 -20 7 -20 -20 -13 21 -20 -11 -20 -20 -20 -20 -20 -9 -20 -20 -0 -5 -20 -20 -20
12 -5 -12 8 -20 -17 -13 -18 -8 -0 3 -6 -4 -13 -20 -12 -7 -14 0 -6 6 -3 -16 23 -20 -20 -20 -20 -20 -20 -20 -20 -20 -20 -20 -20 -19 -10 -12 22 -20 -20 -20 -20
8 -20 -20 -19 3 6 -1 -13 -7 -20 3 12 -5 6 4 6 -7 4 -7 -0 -20 -7 -8 -20 -20 -20 -20 -10 -20 -20 -20 -20 -20 -20 -20 -20 -20 -20 -20 -10 -20 -20 -20 -20
-20 -20 -6 -18 -20 -20 6 -18 -20 -19 9 7 6 -0 4 14 19 7 4 -20 -20 -20 -20 -20 -20 -20 -20 -12 -20 -20 -20 -20 -20 -20 -20 -20 -20 -20 -20 -20 -20 -20 -20 -20
Wind_Speed
3 3 4 4 6 8 9 3 5 4 7 7 5 11 11 6 13 8 14 10 15 17 17 18 20 18 15 1 3 11 9 7 11 14 2 4 11 14 14 11 12 11 11 15
3 3 3 5 4 5 1 3 2 3 3 8 11 13 13 19 19 14 11 12 11 10 13 10 14 18 18 19 13 8 6 8 12 16 10 10 11 12 11 8 7 15 13 13
4 4 4 4 4 4 1 1 4 3 3 3 14 18 20 20 13 20 19 14 13 13 15 14 9 12 5 5 11 3 4 14 15 13 13 5 7 10 8 10 11 13 19 21
4 4 7 5 4 2 2 3 3 4 4 10 8 15 12 18 13 15 9 8 19 14 8 12 17 18 18 16 10 6 5 15 17 15 13 11 14 18 18 20 21 19 24 24
5 6 6 7 7 3 4 2 4 2 4 4 8 12 14 22 21 8 6 15 15 7 12 15 14 14 12 12 7 12 6 12 8 4 10 12 15 17 16 21 24 22 26 33
8 8 7 6 7 6 4 2 0 2 3 5 9 14 9 8 15 8 15 15 12 12 17 15 14 12 14 15 14 13 11 8 10 18 16 12 18 14 20 23 22 20 23 24
11 10 10 9 9 6 5 3 3 3 10 12 13 10 9 9 13 16 15 15 17 5 3 8 14 15 16 17 20 17 19 11 2 7 10 16 15 6 11 15 14 14 18 19
12 11 11 11 11 10 7 5 4 3 11 13 17 19 15 13 12 15 11 13 15 4 2 3 6 11 11 18 21 19 17 15 9 8 13 17 15 14 16 17 15 13 10 9
12 12 12 12 12 12 7 7 7 4 6 13 20 19 17 15 14 14 10 10 8 6 3 6 6 7 6 5 4 9 17 14 7 6 6 8 3 5 4 4 12 6 5 6
13 13 14 14 14 14 9 6 9 6 6 13 16 10 9 7 7 9 10 4 6 9 5 8 7 9 3 6 5 1 9 9 13 11 10 9 5 7 4 11 4 2 7 9
15 15 14 15 16 16 11 8 9 6 5 14 15 13 11 11 6 9 3 5 5 5 7 4 5 6 7 7 8 5 10 7 8 9 12 15 6 4 12 5 10 11 12 11
16 16 15 15 16 17 15 9 8 8 7 8 11 12 15 16 17 11 3 6 4 6 5 7 4 5 4 8 7 11 12 13 8 5 5 5 4 5 7 7 8 9 12 14
18 17 17 16 16 18 17 9 8 7 7 11 15 17 20 21 20 15 9 5 4 4 7 5 4 7 4 6 9 11 10 10 8 11 10 16 14 13 11 11 9 8 3 14
19 18 18 17 18 18 17 9 8 9 5 7 11 4 12 10 13 19 19 17 10 4 7 8 5 5 1 7 8 8 7 5 10 13 15 14 12 19 16 12 9 12 6 9
21 19 18 17 17 16 11 7 9 9 8 5 7 15 22 11 14 19 19 17 15 6 4 5 5 3 4 6 7 9 10 14 10 11 13 11 16 15 10 11 11 10 8 6
20 19 17 15 9 6 3 3 8 10 8 4 5 4 7 8 5 12 12 12 7 3 4 5 3 2 5 7 12 12 14 15 16 16 15 14 16 14 12 14 15 15 10 7
20 17 15 14 10 7 5 3 1 14 10 3 5 5 1 4 2 1 1 5 5 6 4 4 5 6 5 9 16 19 18 17 17 18 15 16 17 13 12 11 10 9 13 12
18 15 15 12 10 11 9 3 8 9 6 4 4 6 3 8 2 2 2 3 4 5 3 2 5 1 5 8 18 15 16 16 18 18 15 16 15 13 14 13 13 12 10 7
15 13 7 4 5 4 5 8 16 1 2 3 5 5 3 4 0 1 2 1 2 2 3 3 3 5 9 17 16 16 14 13 15 12 8 9 13 14 15 11 9 9 8 7
11 7 3 3 4 9 12 3 5 4 5 5 5 2 5 3 2 1 2 1 1 2 4 2 5 8 19 16 16 15 15 15 14 14 17 16 17 14 14 15 12 10 8 8
5 3 3 3 11 3 2 5 7 6 6 7 7 9 3 3 3 2 2 1 1 4 3 4 4 6 3 4 7 8 9 7 10 12 14 13 12 11 9 8 7 6 5 7
4 5 3 2 3 4 5 5 5 6 5 4 5 6 4 3 2 2 3 3 1 5 1 4 5 3 0 6 8 8 7 6 3 3 4 4 5 7 6 3 6 9 10 8
2 2 3 4 6 9 6 5 4 3 4 5 5 5 3 3 3 1 3 4 5 0 4 5 4 2 2 4 3 5 6 6 6 5 5 5 6 6 9 7 8 10 9 6
1 4 5 5 4 4 2 3 2 3 1 5 5 4 2 2 4 3 4 4 2 4 4 5 2 5 5 5 4 5 5 5 6 6 6 5 4 4 5 5 4 6 6 5
3 3 3 3 1 1 2 2 1 2 4 5 4 3 2 3 3 3 3 4 5 5 4 3 4 4 4 5 5 6 5 4 4 5 4 4 4 4 5 5 5 6 6 6
3 3 3 1 3 1 2 1 0 1 3 1 1 2 3 5 4 5 7 4 5 2 1 3 3 3 3 4 5 5 4 5 3 4 4 4 4 5 6 7 6 5 5 8
3 2 2 2 2 2 1 1 0 1 1 1 2 3 5 1 4 5 4 4 3 4 3 1 2 3 4 3 3 3 3 3 2 3 3 4 5 5 7 8 5 7 7 8
Wind_Direction
348 354 347 343 346 329 167 164 230 112 183 205 216 228 230 251 242 234 252 268 265 267 269 272 271 267 261 45 297 269 253 274 255 258 266 294 271 271 261 244 251 238 263 268
294 296 317 317 323 318 248 232 264 94 250 230 228 243 243 242 247 239 234 237 237 254 260 270 257 264 266 272 255 261 204 230 260 246 203 207 232 233 254 276 277 261 271 271
261 272 289 310 305 337 234 250 230 181 213 271 252 257 255 245 243 250 247 248 266 258 256 252 265 268 275 289 262 261 237 255 258 269 288 338 235 222 233 259 256 265 256 279
288 308 276 269 271 286 205 193 235 215 206 222 224 244 267 244 232 232 230 252 239 241 248 261 260 263 264 264 252 235 240 260 266 267 277 277 276 272 271 262 258 256 269 265
272 279 308 265 248 229 230 242 249 168 304 213 224 233 226 247 250 217 225 234 254 249 229 248 270 287 272 268 264 245 223 253 269 255 265 268 269 260 252 260 261 261 262 266
260 263 272 282 280 228 246 192 276 254 255 280 251 245 240 265 275 265 240 239 236 242 238 275 274 270 270 267 265 263 262 261 253 257 255 264 262 248 241 256 252 251 257 273
247 243 245 250 260 246 249 237 245 270 266 249 253 261 246 263 270 261 266 252 243 272 79 338 272 251 253 248 244 240 243 222 262 274 254 254 274 236 255 259 266 263 265 273
258 255 244 237 246 257 250 244 233 232 257 271 270 257 269 283 271 262 254 238 244 60 44 201 249 237 240 237 234 231 228 233 236 241 252 270 245 234 264 263 280 262 271 292
257 254 253 249 244 251 257 252 229 228 270 250 260 268 274 272 275 283 263 274 245 168 211 214 222 232 225 225 192 237 225 226 210 213 241 251 299 139 165 261 265 148 275 326
256 255 252 250 244 244 245 249 236 238 245 261 267 248 269 283 268 270 285 270 220 175 213 210 232 239 142 217 197 199 197 194 218 233 253 268 253 231 220 251 304 1 334 325
249 252 252 249 246 243 239 245 231 233 256 263 265 273 271 269 256 262 29 305 222 191 220 215 214 245 199 225 179 200 208 199 214 236 250 266 220 144 226 348 321 312 313 304
240 245 245 248 244 240 234 244 225 235 239 286 309 284 278 274 273 276 233 286 336 304 214 222 240 214 191 227 239 203 245 231 265 258 273 40 185 248 260 283 289 310 303 300
235 236 239 243 245 242 232 233 229 226 252 270 256 258 255 248 244 237 248 215 203 244 313 284 249 247 232 230 238 249 241 250 250 267 251 254 257 289 274 265 265 214 258 299
229 232 236 244 247 240 233 221 220 227 272 266 272 295 252 259 254 237 229 246 229 263 298 274 259 252 227 264 273 252 264 271 251 261 264 270 283 280 276 284 244 246 248 273
226 227 234 248 255 239 233 225 223 222 231 282 300 302 278 272 263 236 227 221 225 224 247 236 232 257 256 240 283 254 240 241 245 254 255 241 266 279 295 289 273 255 281 319
217 220 229 239 242 182 191 234 211 215 214 259 275 341 250 261 257 234 217 219 211 181 223 230 233 253 250 266 262 271 245 239 247 257 264 278 281 287 279 274 276 272 260 262
206 210 222 230 216 169 204 230 320 182 162 244 266 256 153 293 177 199 215 179 197 213 229 238 258 233 219 262 266 257 257 253 259 262 273 274 266 265 270 273 267 265 270 273
193 206 216 230 204 213 230 178 49 154 179 211 257 266 263 175 214 223 218 188 191 198 244 202 240 208 235 257 259 274 265 260 262 264 261 255 272 284 278 273 270 266 257 240
188 199 201 196 205 195 211 168 132 82 308 236 220 260 283 169 140 71 164 229 185 54 244 240 242 227 230 248 280 289 288 267 264 261 269 247 241 272 275 270 252 263 270 221
170 144 179 189 187 123 117 140 184 205 189 219 264 259 245 242 179 71 130 161 276 239 233 134 235 255 255 278 288 293 295 267 261 265 262 259 265 264 264 255 253 270 269 214
173 156 184 61 126 84 165 209 197 182 211 202 226 210 202 180 214 154 229 188 287 256 139 239 235 256 267 263 319 331 323 304 265 258 266 270 268 266 259 254 252 253 217 191
116 102 87 132 177 201 228 201 191 220 221 179 195 175 183 133 258 180 180 220 194 248 67 243 251 250 206 349 10 334 346 2 357 336 295 289 268 250 234 193 128 112 103 105
128 138 227 197 157 216 237 193 192 209 172 178 176 148 130 138 220 164 190 218 232 59 232 241 255 35 60 21 324 316 10 9 22 26 29 55 71 102 139 129 122 126 110 112
234 216 219 249 165 245 259 307 351 60 132 149 168 117 143 160 185 171 222 223 246 261 265 250 329 20 5 13 341 345 3 8 16 24 26 36 68 65 37 67 100 116 126 122
248 228 256 238 338 313 340 321 276 77 138 145 132 130 202 164 200 206 236 220 231 230 256 335 31 17 6 11 10 354 356 341 12 25 46 55 67 84 82 47 79 101 113 117
252 260 257 195 248 153 224 251 140 31 169 59 242 148 210 213 213 197 215 237 232 244 314 3 353 350 17 10 359 349 350 337 49 74 75 80 75 93 97 85 81 87 108 118
222 226 264 309 327 293 22 346 22 139 194 243 246 226 233 32 222 215 209 235 330 352 343 319 348 312 328 343 333 357 348 336 12 100 91 96 109 132 123 104 88 98 93 99